Location: Sperry Observatory
(40.6664°N, 74.3236°W)
Time: 10:59:56
(UTC-05:00)

FO-29 - Visible Passes

Search period start: 23 January 2018 00:00
Search period end: 02 February 2018 00:00
Orbit: 799 x 1322 km, 98.5° (Epoch: 22 January)

Date Brightness Start Highest point End Pass type
(mag) Time Alt. Az. Time Alt. Az. Time Alt. Az.
23 Jan 11.9 05:52:29 10° ESE 05:56:59 20° ENE 06:01:09 10° NNE visible
24 Jan 10.7 06:40:21 10° SE 06:46:40 47° ENE 06:52:18 10° N visible
25 Jan 11.9 05:47:55 10° ESE 05:52:01 18° ENE 05:55:51 10° NNE visible
26 Jan 10.8 06:35:36 10° SE 06:41:41 43° ENE 06:47:09 10° N visible
27 Jan 11.9 05:43:24 10° E 05:47:04 16° ENE 05:50:31 10° NNE visible
28 Jan 10.9 06:30:50 10° SE 06:36:42 40° ENE 06:41:58 10° N visible
29 Jan 12.0 05:38:55 10° E 05:42:06 15° ENE 05:45:09 10° NNE visible
30 Jan 11.0 06:26:05 10° SE 06:31:42 36° ENE 06:36:48 10° N visible
31 Jan 12.0 05:34:28 10° E 05:37:08 13° ENE 05:39:41 10° NNE visible
01 Feb 11.1 06:21:20 10° SE 06:26:42 33° ENE 06:31:36 10° N visible
